Preview of NWS' New Version of Forecast
This preview is not operational and should not be used for support decisions.

Regional Weather Roundup (RWR)

Issued by National Weather Service (NWS)

                            
000
ASUS46 KPQR 202210
RWROR 

OREGON REGIONAL WEATHER ROUNDUP
NATIONAL WEATHER SERVICE PORTLAND OR
200 PM PST WED FEB 20 2019

NOTE: "FAIR" INDICATES FEW OR NO CLOUDS BELOW 12,000 FEET WITH
NO SIGNIFICANT WEATHER AND/OR OBSTRUCTIONS TO VISIBILITY.

ORZ001>013-202300-
NORTHWEST OREGON

  
CITY           SKY/WX    TMP DP  RH WIND       PRES   REMARKS
ASTORIA        CLOUDY    46  38  73 NW8       29.82F                  
TILLAMOOK      PTSUNNY   46  39  76 SW9       29.85F                  
NEWPORT        PTSUNNY   41  37  87 CALM      29.89F                  
PORTLAND       PTSUNNY   43  36  76 E5        29.82F                  
VANCOUVER WA   RAIN      44  36  73 SW6       29.82F                  
SCAPPOOSE      MOSUNNY   44  39  82 W3        29.81F                  
HILLSBORO      RAIN      43  35  73 NW7       29.81F                  
AURORA         RAIN      42  38  85 S8        29.83F                  
MCMINNVILLE    PTSUNNY   45  38  76 SW8       29.82F                  
SALEM          PTSUNNY   45  36  70 S6        29.82F                  
CORVALLIS      CLOUDY    39  36  89 SW7       29.86F                  
EUGENE         CLOUDY    42  36  79 N6        29.86F                  
$$

ORZ021-028-202300-
SOUTHWEST OREGON

  
CITY           SKY/WX    TMP DP  RH WIND       PRES   REMARKS
NORTH BEND     LGT RAIN  46  39  76 N12       29.90F                  
BROOKINGS      LGT RAIN  42  40  92 NW7       29.93F                  
ROSEBURG       LGT RAIN  40  36  86 SW5       29.88F FOG              
SEXTON SUMMIT  FOG       30  29  96 VRB3      29.75F VSB 1/4          
GRANTS PASS    CLOUDY    41  37  87 CALM      29.88                   
MEDFORD        CLOUDY    42  30  62 W7        29.83F                  
$$

ORZ014>016-041-202300-
COLUMBIA GORGE

  
CITY           SKY/WX    TMP DP  RH WIND       PRES   REMARKS
TROUTDALE      PTSUNNY   40  37  89 E5        29.82F FOG              
HOOD RIVER     CLOUDY    43  32  65 NW6       29.78F                  
THE DALLES     PTSUNNY   34  28  79 E13       29.82F WCI  25          
$$

ORZ029>031-041-044-049-050-061>064-502-503-505>511-202300-
EASTERN OREGON

  
CITY           SKY/WX    TMP DP  RH WIND       PRES   REMARKS
MADRAS         NOT AVBL                                               
REDMOND        PTSUNNY   40  23  50 W13       29.68F                  
BEND           PTSUNNY   36  21  55 CALM      29.68F                  
PRINEVILLE     PTSUNNY   37  19  48 W9        29.68                   
KLAMATH FALLS  PTSUNNY   34  22  61 W18       29.70F WCI  23          
LAKEVIEW       LGT SNOW  32  19  59 MISG      29.66F                  
HERMISTON      CLOUDY    33  25  72 E7        29.83F                  
PENDLETON      CLOUDY    30  24  78 CALM      29.78S                  
JOHN DAY       LGT SNOW  31  26  83 N6G18     29.66                   
MEACHAM        CLOUDY    24  21  88 W3        29.65F FOG              
LA GRANDE      MOSUNNY   34  24  67 W15       29.68F WCI  24          
BAKER CITY     PTSUNNY   34  24  67 NW10      29.64F WCI  26          
BURNS          PTSUNNY   33  17  51 W14       29.63F WCI  23          
ROME             N/A     34  20  56 NW13      29.61F WCI  25          
ONTARIO        PTSUNNY   39  31  72 NE5       29.69F                  
$$